YAOGAN-33 (47302 NORAD) Tracking and Keplerian Element Data

This shows tracking and keplerian element data for the satellite.

Feedback or suggestion? Click here.




ElementValue
Catalog47302
NameYAOGAN-33
Epoch Orbit1504
Epoch Day99.76453543
Epoch Year2021
RAAN349.2689
Inclination98.261
Eccentricity0.000103
Argument of Perigee54.0385
Mean Anonmoly306.0917
Mean Motion14.59138012
Decay Rate6E-07
L11 47302U 20103A 21099.76453543 .00000060 00000-0 22686-4 0 9994
L22 47302 98.2610 349.2689 0001030 54.0385 306.0917 14.59138012 15044

Live tracking and technical data element details for YAOGAN-33 (NORAD 47302). YAOGAN-33 can be tracked NOW for your location showing map with azimuth and elevation plus other details from your city location.

Track the satellite on the map from your city or location and see movement details for azimuth, elevation, latitude, longitude, range, height, and movement on the map or in text.







IsCatalogInMostPopularTable: catalog: 47302, numindb: 32
Update: records affected: 1



GetName: 47302 YAOGAN-33

Hit Count: updated at: Sat, 10 Apr 2021 18:39:39 GMT